TimeEST,TemperatureF,Dew PointF,Humidity,Sea Level PressureIn,VisibilityMPH,Wind Direction,Wind SpeedMPH,Gust SpeedMPH,PrecipitationIn,Events,Conditions,WindDirDegrees,DateUTC
12:53 AM,42.1,39.9,92,30.21,7.0,Calm,Calm,-,N/A,,Clear,0,2013-03-08 05:53:00
1:53 AM,42.1,41.0,96,30.20,6.0,Calm,Calm,-,N/A,,Clear,0,2013-03-08 06:53:00
2:53 AM,42.1,39.9,92,30.20,6.0,Calm,Calm,-,N/A,,Clear,0,2013-03-08 07:53:00
3:53 AM,41.0,39.0,93,30.19,4.0,Calm,Calm,-,N/A,,Clear,0,2013-03-08 08:53:00
4:53 AM,39.9,37.9,93,30.19,6.0,Calm,Calm,-,N/A,,Clear,0,2013-03-08 09:53:00
5:53 AM,39.9,37.9,93,30.22,6.0,Calm,Calm,-,N/A,,Clear,0,2013-03-08 10:53:00
6:53 AM,39.0,37.0,93,30.23,5.0,North,3.5,-,N/A,,Clear,350,2013-03-08 11:53:00
7:53 AM,46.0,41.0,83,30.25,8.0,North,3.5,-,N/A,,Clear,10,2013-03-08 12:53:00
8:53 AM,54.0,45.0,72,30.25,10.0,NNE,12.7,19.6,N/A,,Clear,30,2013-03-08 13:53:00
9:53 AM,55.9,44.1,64,30.25,10.0,NE,11.5,18.4,N/A,,Clear,50,2013-03-08 14:53:00
10:53 AM,55.0,43.0,64,30.27,10.0,NNE,10.4,-,N/A,,Clear,20,2013-03-08 15:53:00
11:53 AM,55.9,42.1,60,30.28,10.0,NE,10.4,-,N/A,,Clear,50,2013-03-08 16:53:00
12:53 PM,57.0,41.0,55,30.27,10.0,NNE,9.2,-,N/A,,Clear,20,2013-03-08 17:53:00
1:53 PM,55.9,42.1,60,30.23,10.0,ENE,13.8,-,N/A,,Clear,70,2013-03-08 18:53:00
2:53 PM,55.0,41.0,59,30.21,10.0,ENE,11.5,-,N/A,,Clear,70,2013-03-08 19:53:00
3:53 PM,54.0,41.0,62,30.20,10.0,East,9.2,-,N/A,,Clear,90,2013-03-08 20:53:00
4:53 PM,55.0,41.0,59,30.18,10.0,East,6.9,-,N/A,,Clear,100,2013-03-08 21:53:00
5:53 PM,54.0,42.1,64,30.19,10.0,ESE,4.6,-,N/A,,Clear,110,2013-03-08 22:53:00
6:53 PM,52.0,43.0,71,30.22,10.0,Calm,Calm,-,N/A,,Clear,0,2013-03-08 23:53:00
7:53 PM,48.0,42.1,80,30.24,9.0,Calm,Calm,-,N/A,,Clear,0,2013-03-09 00:53:00
8:53 PM,46.9,42.1,83,30.25,8.0,Calm,Calm,-,N/A,,Clear,0,2013-03-09 01:53:00
9:53 PM,45.0,42.1,90,30.25,9.0,Calm,Calm,-,N/A,,Clear,0,2013-03-09 02:53:00
10:53 PM,44.1,41.0,89,30.25,8.0,Calm,Calm,-,N/A,,Clear,0,2013-03-09 03:53:00
11:53 PM,43.0,39.9,89,30.26,8.0,Calm,Calm,-,N/A,,Clear,0,2013-03-09 04:53:00